Regional Weather Roundup
Issued by NWS

Home | Current Version | Previous Version | Text Only | Print | Product List | Glossary On
Versions: 1 2 3 4 5 6 7 8 9 10 11 12 13 14 15 16 17 18 19 20 21 22 23 24 25 26 27 28 29 30 31 32 33 34 35 36 37 38 39 40 41 42 43 44 45 46 47 48 49 50
000
ASUS43 KMKX 260300
RWRWI

WISCONSIN REGIONAL WEATHER ROUNDUP
NATIONAL WEATHER SERVICE MILWAUKEE/SULLIVAN WI
1000 PM CDT SAT APR 25 2015

NOTE: "FAIR" INDICATES FEW OR NO CLOUDS BELOW 12,000 FEET WITH NO
SIGNIFICANT WEATHER AND/OR OBSTRUCTIONS TO VISIBILITY.

WIZ001-002-006>008-014>016-023>028-260400-
NORTHWEST WISCONSIN

CITY           SKY/WX    TMP DP  RH WIND       PRES   REMARKS
SUPERIOR ARPT  CLEAR     36  24  63 NE7       30.05S WCI  30
ASHLAND        CLEAR     31  24  75 NE7       30.05R WCI  24
HAYWARD        CLEAR     36  22  56 NE7       30.00R WCI  30
SIREN          CLEAR     44  21  39 NE8G17    29.99R
CUMBERLAND     CLEAR     43  21  42 N10       29.96R
RICE LAKE      CLEAR     45  23  42 N15       29.96R
CHETEK         CLEAR     48  25  41 N7        29.95R
LADYSMITH      CLEAR     43  21  41 N12       29.97R
EAU CLAIRE     NOT AVBL
MENOMONIE      CLEAR     51  25  36 N12       29.93R
NEW RICHMOND   CLEAR     48  26  42 NE10      29.94R
OSCEOLA        CLEAR     48  24  38 N7        29.98R
$$

WIZ003>005-009-010-017-018-260400-
NORTH CENTRAL WISCONSIN

CITY           SKY/WX    TMP DP  RH WIND       PRES   REMARKS
MANITOWISH WTR CLEAR     37  23  57 N7        29.98R WCI  32
ARBOR VITAE    CLEAR     42  20  41 NE7       29.96R
WOODRUFF       CLEAR     42  20  41 NE7       29.96R
RHINELANDER    CLEAR     42  21  43 NE5       29.96R
EAGLE RIVER    CLEAR     38  19  46 NE6       29.96R WCI  33
LAND O LAKES   CLEAR     36  18  48 N6        29.99R WCI  31
PHILLIPS       CLEAR     40  24  54 NE9       29.96R WCI  33
TOMAHAWK       CLEAR     45  20  38 CALM      29.95R
MEDFORD        CLEAR     40  24  52 N7        29.92R
MERRILL        CLEAR     43  21  41 SE6       29.94R
$$

WIZ029-030-035-036-043>047-260400-
CENTRAL WISCONSIN

CITY           SKY/WX    TMP DP  RH WIND       PRES   REMARKS
WAUSAU         CLEAR     42  19  39 E6        29.93R
MOSINEE        CLEAR     41  18  38 E6        29.95R
MARSHFIELD     CLEAR     43  21  41 SE6       29.92R
STEVENS POINT  CLEAR     39  17  40 NE3       29.94R
WAUPACA        CLEAR     40  17  39 CALM      29.94S
WAUTOMA        NOT AVBL
WISC RAPIDS    CLEAR     42  15  33 CALM      29.95R
CAMP DOUGLAS   NOT AVBL
$$

WIZ011>013-019>022-031-037>040-048>050-260400-
NORTHEAST WISCONSIN

CITY           SKY/WX    TMP DP  RH WIND       PRES   REMARKS
ANTIGO         CLEAR     38  24  55 CALM      29.94R
SHAWANO        CLEAR     42  25  50 NE6       29.95R
OCONTO         CLEAR     40  23  50 N5        29.95R
STURGEON BAY   CLEAR     39  19  45 N7        29.97R WCI  34
GREEN BAY      CLEAR     42  28  57 NE10      29.94R
MANITOWOC      NOT AVBL
APPLETON       PTCLDY    37  14  38 N7        29.93R WCI  32
CLINTONVILLE   CLEAR     39  18  41 NE3       29.94S
OSHKOSH        CLEAR     43  22  43 NE9       29.92R
$$

WIZ032>034-041-042-053>061-260400-
SOUTHWEST WISCONSIN

CITY           SKY/WX    TMP DP  RH WIND       PRES   REMARKS
LA CROSSE      CLEAR     46  19  34 CALM      29.91R
SPARTA         CLEAR     37  17  43 CALM      29.92R
VIROQUA        CLEAR     43  19  37 E9        29.90R
BOSCOBEL       PTCLDY    41  27  57 CALM      29.91R
PRAIRIE DU CHI CLEAR     41  32  72 CALM      29.90R
PLATTEVILLE    PTCLDY    44  35  72 NE6       29.88R
$$

WIZ056-057-062-063-064-067-068-260400-
SOUTH CENTRAL WISCONSIN

CITY           SKY/WX    TMP DP  RH WIND       PRES   REMARKS
REEDSBURG      CLEAR     44   8  23 NE7       29.91R
BARABOO/DELLS  CLEAR     41  11  29 NE6       29.91R
LONE ROCK      NOT AVBL
MINERAL POINT  CLEAR     45  28  53 NE5       29.89R
MADISON        FAIR      40  27  59 N8        29.90R WCI  34
MIDDLETON      MOCLDY    42  29  60 NE6       29.90R
WATERTOWN      PTCLDY    42  19  39 NE5       29.89R
MONROE         CLEAR     41  34  75 N6        29.87R
JANESVILLE     CLOUDY    45  30  57 NE5       29.87R
$$

WIZ051-052-058>065-066-070>072-260400-
SOUTHEAST WISCONSIN

CITY           SKY/WX    TMP DP  RH WIND       PRES   REMARKS
MILWAUKEE      MOCLDY    41  25  53 N14G22    29.88S
WAUKESHA       MOCLDY    37  19  48 N8        29.90R WCI  31
MILWAUKEE/TIMM CLOUDY    41  19  42 N10       29.90R
RACINE         CLOUDY    40  29  64 N17G23    29.88S WCI  31
BURLINGTON     MOCLDY    40  18  40 N9        29.87S WCI  34
KENOSHA        CLOUDY    41  28  60 N12       29.86F
FOND DU LAC    CLEAR     40  15  36 NE6       29.92R
SHEBOYGAN      CLEAR     39  23  52 N7        29.91R WCI  34
WEST BEND      MOCLDY    39  18  41 N7        29.90R WCI  34
JUNEAU         PTCLDY    40  23  49 NE8       29.91R
$$

LSZ147-162-260400-
LAKE SUPERIOR

STATION/POSITION TIME  TEMP    WIND        PRES    WAVE
                       AIR SEA DIR/SP/G            HT/PER
                 (UTC) (F)     (DEG/KT/KT) (MB)    (FT/S)
W MID LAKE BUOY  0150   35 34   20/  8/  8 1018.7R   2/ 4
DEVILS ISLAND    0200   36      20/  9/ 10 1018.2R
PORT WING        0200   37      40/ 12/ 14 1017.6
SAXON HARBOR     0200   38      CALM  /  5 1016.6
$$

LMZ867-665-643>646-260400-
LAKE MICHIGAN

STATION/POSITION TIME  TEMP    WIND        PRES    WAVE
                       AIR SEA DIR/SP/G            HT/PER
                 (UTC) (F)     (DEG/KT/KT) (MB)    (FT/S)
CHAMBERS ISLAND  0200   42     360/ 16/ 19 1014.2R
NORTHPORT PIER   0200   41     360/ 14/ 16 1014.2R
SISTER BAY       0032   46      40/  4/  9   N/A
KEWAUNEE LAKESHO 0200   41      30/ 11/ 14 1012.3R
SHEBOYGAN LAKESH 0200   42      10/ 17/ 20 1013.2R
PORT WASHINGTON  0240   44      10/  7/ 13 1012.9R
MILWAUKEE LAKESH 0200   42     350/ 17/ 23   N/A
KENOSHA   LAKESH 0200   42      10/ 21/ 25 1011.2R
$$

TC  - TEMPERATURE IN CELSIUS
VSB - VISIBILITY IN STATUTE MILES
WCI - WIND CHILL INDEX
HX  - HEAT INDEX



USA.gov is the U.S. government's official web portal to all federal, state and local government web resources and services.